Date,TemperatureHighF,TemperatureAvgF,TemperatureLowF,DewpointHighF,DewpointAvgF,DewpointLowF,HumidityHigh,HumidityAvg,HumidityLow,PressureMaxIn,PressureMinIn,WindSpeedMaxMPH,WindSpeedAvgMPH,GustSpeedMaxMPH,PrecipitationSumIn
2013-2-1,63.7,54.0,50.8,45.1,40.4,37.3,72,60,41,30.08,29.99,0,0,6,0.00
2013-2-2,62.7,53.9,46.8,50.1,42.3,36.0,85,65,54,30.15,30.07,0,0,6,0.00
2013-2-8,44.2,40.4,36.6,36.2,34.4,29.9,90,79,57,29.89,29.85,4,1,6,0.07
2013-2-9,49.8,45.8,40.1,33.8,26.9,22.0,76,49,34,29.99,29.91,3,1,5,0.00
2013-2-10,53.1,49.9,44.4,34.5,30.6,25.7,68,48,38,29.99,29.90,3,1,6,0.00
2013-2-11,54.4,49.8,43.4,31.6,24.6,20.5,53,38,27,30.11,29.98,3,1,3,0.00
2013-2-12,58.3,47.7,36.8,43.7,37.4,28.3,87,69,46,30.24,30.16,0,0,2,0.00
2013-2-13,59.6,53.9,49.7,37.5,33.8,29.4,58,47,35,30.20,30.09,5,1,6,0.00
2013-2-15,72.3,59.9,54.5,40.4,34.3,30.8,46,39,31,30.11,30.06,0,0,2,0.00
2013-2-16,71.2,65.8,56.6,40.7,34.2,30.0,54,32,22,30.03,29.93,1,0,3,0.00
2013-2-17,47.6,45.8,44.8,39.6,37.8,36.4,79,74,65,29.91,29.89,1,0,1,0.00
2013-2-18,44.9,42.4,40.6,37.8,36.5,35.0,87,80,71,29.91,29.88,0,0,0,0.00
2013-2-19,42.2,37.4,34.7,39.2,34.4,29.9,92,89,80,29.74,29.66,5,1,6,0.52
2013-2-20,47.4,39.4,33.4,37.2,32.9,28.5,88,78,57,29.95,29.73,4,1,7,0.08
2013-2-21,49.8,44.1,41.5,31.7,28.8,21.4,64,55,41,30.06,29.99,4,1,4,0.00
2013-2-22,56.9,54.7,51.9,35.2,32.6,31.2,45,43,40,30.13,30.12,3,1,3,0.00
2013-2-24,53.1,46.8,43.9,32.1,26.5,18.8,63,46,31,30.13,30.06,7,1,7,0.00
2013-2-26,57.2,55.2,52.3,30.4,24.6,20.6,43,31,25,30.06,30.03,2,1,2,0.00
2013-2-27,65.9,58.2,52.0,40.3,35.9,28.7,64,45,27,30.23,30.12,3,0,5,0.00
2013-2-28,62.6,55.6,50.4,49.0,44.1,38.5,78,66,55,30.31,30.22,5,1,5,0.00